TimeEDT,TemperatureF,Dew PointF,Humidity,Sea Level PressureIn,VisibilityMPH,Wind Direction,Wind SpeedMPH,Gust SpeedMPH,PrecipitationIn,Events,Conditions,WindDirDegrees,DateUTC
12:00 AM,57.2,57.2,100,29.76,5.0,SSW,3.5,-,0.00,Rain,Light Rain,210,2013-05-24 04:00:00
12:22 AM,57.2,55.4,94,29.76,6.0,Calm,Calm,-,0.00,Rain,Light Rain,0,2013-05-24 04:22:00
12:42 AM,57.2,57.2,100,29.76,4.0,Calm,Calm,-,0.00,,Overcast,0,2013-05-24 04:42:00
12:53 AM,57.9,55.9,93,29.75,4.0,West,4.6,-,0.00,,Overcast,260,2013-05-24 04:53:00
12:57 AM,57.2,55.4,94,29.76,1.5,West,4.6,-,N/A,,Overcast,270,2013-05-24 04:57:00
1:05 AM,57.2,55.4,94,29.76,0.2,West,4.6,-,N/A,Fog,Fog,280,2013-05-24 05:05:00
1:23 AM,57.2,55.4,94,29.75,0.8,West,5.8,-,N/A,,Mist,270,2013-05-24 05:23:00
1:37 AM,57.2,55.4,94,29.75,0.2,West,5.8,-,N/A,Fog,Fog,280,2013-05-24 05:37:00
1:53 AM,55.9,55.0,97,29.74,0.2,NW,10.4,-,N/A,Fog,Fog,310,2013-05-24 05:53:00
2:06 AM,53.6,51.8,94,29.75,0.5,WNW,11.5,19.6,N/A,Fog,Fog,300,2013-05-24 06:06:00
2:12 AM,51.8,51.8,100,29.75,2.0,NW,13.8,19.6,N/A,,Overcast,310,2013-05-24 06:12:00
2:24 AM,51.8,50.0,94,29.75,1.2,NW,11.5,-,N/A,,Overcast,320,2013-05-24 06:24:00
2:35 AM,50.0,48.2,94,29.75,3.0,NW,15.0,20.7,N/A,,Overcast,320,2013-05-24 06:35:00
2:53 AM,46.9,46.0,97,29.76,8.0,NW,13.8,25.3,N/A,,Overcast,320,2013-05-24 06:53:00
3:04 AM,46.4,44.6,93,29.76,10.0,NW,15.0,24.2,N/A,,Overcast,320,2013-05-24 07:04:00
3:53 AM,44.1,42.1,93,29.78,10.0,NNW,12.7,19.6,N/A,,Overcast,330,2013-05-24 07:53:00
4:48 AM,42.8,39.2,87,29.81,7.0,NNW,15.0,23.0,0.00,Rain,Light Rain,340,2013-05-24 08:48:00
4:53 AM,42.1,39.0,89,29.82,6.0,NNW,13.8,23.0,0.00,Rain,Light Rain,330,2013-05-24 08:53:00
5:03 AM,42.8,39.2,87,29.82,10.0,NNW,12.7,-,0.00,Rain,Light Rain,330,2013-05-24 09:03:00
5:53 AM,41.0,39.0,93,29.83,6.0,NW,10.4,17.3,0.00,Rain,Light Rain,320,2013-05-24 09:53:00
6:53 AM,39.9,37.9,93,29.88,7.0,NW,10.4,-,0.01,,Overcast,320,2013-05-24 10:53:00
7:53 AM,39.9,37.9,93,29.91,3.0,NNW,10.4,-,0.03,Rain,Rain,330,2013-05-24 11:53:00
8:53 AM,41.0,37.9,89,29.93,5.0,NW,10.4,17.3,0.06,Rain,Light Rain,320,2013-05-24 12:53:00
9:53 AM,41.0,39.0,93,29.95,4.0,NW,9.2,17.3,0.07,Rain,Rain,320,2013-05-24 13:53:00
10:27 AM,39.2,37.4,93,29.95,10.0,NNW,13.8,21.9,0.02,Rain,Light Rain,330,2013-05-24 14:27:00
10:48 AM,39.2,37.4,93,29.96,6.0,NW,8.1,21.9,0.03,Rain,Light Rain,310,2013-05-24 14:48:00
10:53 AM,39.9,37.0,89,29.97,7.0,NW,11.5,20.7,0.03,Rain,Light Rain,310,2013-05-24 14:53:00
11:13 AM,39.2,37.4,93,29.97,7.0,NW,11.5,20.7,0.03,Rain,Light Rain,320,2013-05-24 15:13:00
11:49 AM,39.2,35.6,87,29.97,9.0,NNW,13.8,21.9,0.03,Rain,Light Rain,330,2013-05-24 15:49:00
11:53 AM,39.0,36.0,89,29.98,8.0,NNW,12.7,23.0,0.03,Rain,Light Rain,330,2013-05-24 15:53:00
11:59 AM,39.2,35.6,87,29.97,8.0,NNW,13.8,23.0,0.00,Rain,Light Rain,330,2013-05-24 15:59:00
12:53 PM,37.9,35.1,89,30.00,10.0,NNW,13.8,-,0.05,Rain,Light Rain,330,2013-05-24 16:53:00
1:21 PM,39.2,35.6,87,29.98,8.0,NNW,12.7,19.6,0.02,Rain,Light Rain,330,2013-05-24 17:21:00
1:53 PM,39.9,35.1,83,30.01,10.0,NNW,13.8,24.2,0.02,Rain,Light Rain,340,2013-05-24 17:53:00
2:06 PM,41.0,35.6,81,29.99,10.0,NNW,17.3,25.3,0.00,,Overcast,340,2013-05-24 18:06:00
2:53 PM,42.1,37.0,82,30.01,10.0,NNW,16.1,24.2,0.00,,Overcast,330,2013-05-24 18:53:00
3:09 PM,42.8,37.4,81,30.00,10.0,NNW,13.8,-,N/A,,Overcast,340,2013-05-24 19:09:00
3:39 PM,41.0,35.6,81,30.01,7.0,NNW,19.6,28.8,0.00,Rain,Light Rain,340,2013-05-24 19:39:00
3:50 PM,39.2,35.6,87,30.01,6.0,NNW,15.0,24.2,0.00,Rain,Light Rain,330,2013-05-24 19:50:00
3:53 PM,39.9,36.0,86,30.04,9.0,NNW,16.1,24.2,0.00,Rain,Light Rain,330,2013-05-24 19:53:00
4:00 PM,39.2,37.4,93,30.01,5.0,NNW,12.7,24.2,0.00,Rain,Light Rain,330,2013-05-24 20:00:00
4:24 PM,39.2,35.6,87,30.02,4.0,NNW,16.1,23.0,0.00,Rain,Light Rain,330,2013-05-24 20:24:00
4:28 PM,39.2,35.6,87,30.02,2.5,NNW,15.0,24.2,0.00,Rain,Light Rain,330,2013-05-24 20:28:00
4:45 PM,39.2,37.4,93,30.01,4.0,NW,12.7,-,0.00,Rain,Light Rain,320,2013-05-24 20:45:00
4:53 PM,39.9,36.0,86,30.04,4.0,NW,15.0,26.5,0.00,Rain,Light Rain,320,2013-05-24 20:53:00
5:53 PM,39.0,36.0,89,30.06,10.0,NNW,12.7,21.9,0.01,,Overcast,330,2013-05-24 21:53:00
6:03 PM,39.2,35.6,87,30.03,10.0,NW,16.1,23.0,N/A,,Overcast,320,2013-05-24 22:03:00
6:53 PM,39.0,35.1,86,30.07,10.0,NNW,13.8,-,0.00,,Overcast,340,2013-05-24 22:53:00
7:53 PM,39.0,35.1,86,30.09,10.0,NNW,15.0,28.8,N/A,,Overcast,340,2013-05-24 23:53:00
8:53 PM,39.0,35.1,86,30.10,10.0,NNW,11.5,-,N/A,,Overcast,340,2013-05-25 00:53:00
9:09 PM,39.2,35.6,87,30.07,10.0,NNW,9.2,-,N/A,,Overcast,330,2013-05-25 01:09:00
9:53 PM,39.0,35.1,86,30.10,10.0,NNW,11.5,-,0.00,Rain,Light Rain,330,2013-05-25 01:53:00
10:53 PM,39.9,35.1,83,30.10,10.0,NNW,9.2,-,0.00,Rain,Light Rain,340,2013-05-25 02:53:00
11:53 PM,41.0,36.0,82,30.10,10.0,NNW,11.5,-,0.00,Rain,Light Rain,340,2013-05-25 03:53:00